| time (UTC) | temp C | wind direction | speed KPH | gust KPH | rain 1hr cm | rain 24hr cm | rain mn cm | humidity % | barometer mb |
| 20260903192520 | 26 | 172 | 0.0 | 1.6 | 0.00 | 0.00 | 0.00 | 20 | 1020.7 |
| 20260903192515 | 26 | 196 | 0.0 | 0.0 | 0.00 | 0.00 | 0.00 | 20 | 1020.7 |
| 20260903191508 | 26 | 176 | 0.0 | 0.0 | 0.00 | 0.00 | 0.00 | 20 | 1020.7 |
| 20260903191004 | 26 | 200 | 0.0 | 0.0 | 0.00 | 0.00 | 0.00 | 12 | 1020.7 |
| 20260903190957 | 25 | 116 | 0.0 | 0.0 | 0.00 | 0.00 | 0.00 | 11 | 1020.7 |
| 20260903185951 | 25 | 281 | 0.0 | 0.0 | 0.00 | 0.00 | 0.00 | 15 | 1020.7 |
| 20260903185444 | 25 | 253 | 0.0 | 0.0 | 0.00 | 0.00 | 0.00 | 15 | 1020.7 |
| 20260903184938 | 25 | 205 | 0.0 | 0.0 | 0.00 | 0.00 | 0.00 | 19 | 1021.1 |
| 20260903184434 | 25 | 200 | 0.0 | 0.0 | 0.00 | 0.00 | 0.00 | 17 | 1021.1 |
| 20260903183926 | 25 | 213 | 0.0 | 0.0 | 0.00 | 0.00 | 0.00 | 17 | 1020.7 |
| 20260903183422 | 25 | 161 | 0.0 | 0.0 | 0.00 | 0.00 | 0.00 | 21 | 1021.1 |
| 20260903182916 | 25 | 167 | 0.0 | 0.0 | 0.00 | 0.00 | 0.00 | 21 | 1020.7 |
| 20260903182410 | 25 | 69 | 0.0 | 0.0 | 0.00 | 0.00 | 0.00 | 17 | 1021.1 |
| 20260903181903 | 25 | 183 | 0.0 | 0.0 | 0.00 | 0.00 | 0.00 | 16 | 1021.1 |
| 20260903181359 | 24 | 278 | 0.0 | 0.0 | 0.00 | 0.00 | 0.00 | 18 | 1021.1 |
| 20260903180851 | 24 | 184 | 0.0 | 0.0 | 0.00 | 0.00 | 0.00 | 20 | 1021.1 |
| 20260903180346 | 24 | 112 | 0.0 | 0.0 | 0.00 | 0.00 | 0.00 | 21 | 1021.4 |
| 20260903175841 | 24 | 154 | 0.0 | 0.0 | 0.00 | 0.00 | 0.00 | 21 | 1021.1 |
| 20260903175334 | 24 | 172 | 0.0 | 0.0 | 0.00 | 0.00 | 0.00 | 21 | 1021.1 |
| 20260903174828 | 24 | 234 | 0.0 | 0.0 | 0.00 | 0.00 | 0.00 | 21 | 1021.1 |
| 20260903174819 | 24 | 200 | 0.0 | 0.0 | 0.00 | 0.00 | 0.00 | 21 | 1021.4 |
| 20260903174425 | 24 | 122 | 0.0 | 0.0 | 0.00 | 0.00 | 0.00 | 22 | 1021.4 |
| 20260903173311 | 24 | 170 | 0.0 | 0.0 | 0.00 | 0.00 | 0.00 | 21 | 1021.8 |
| 20260903172807 | 24 | 261 | 0.0 | 0.0 | 0.00 | 0.00 | 0.00 | 19 | 1021.1 |
| 20260903172259 | 23 | 272 | 0.0 | 0.0 | 0.00 | 0.00 | 0.00 | 17 | 1021.8 |
| 20260903171754 | 23 | 214 | 0.0 | 0.0 | 0.00 | 0.00 | 0.00 | 19 | 1021.4 |
| 20260903171749 | 23 | 251 | 0.0 | 0.0 | 0.00 | 0.00 | 0.00 | 21 | 1021.4 |
| 20260903170742 | 23 | 137 | 0.0 | 0.0 | 0.00 | 0.00 | 0.00 | 19 | 1021.8 |
| 20260903170236 | 23 | 233 | 0.0 | 0.0 | 0.00 | 0.00 | 0.00 | 18 | 1021.8 |
| 20260903165732 | 23 | 185 | 0.0 | 0.0 | 0.00 | 0.00 | 0.00 | 22 | 1021.8 |
| 20260903165224 | 23 | 223 | 0.0 | 0.0 | 0.00 | 0.00 | 0.00 | 23 | 1021.8 |
| 20260903164721 | 23 | 225 | 0.0 | 0.0 | 0.00 | 0.00 | 0.00 | 21 | 1021.8 |
| 20260903164716 | 22 | 143 | 0.0 | 0.0 | 0.00 | 0.00 | 0.00 | 19 | 1021.8 |
| 20260903163707 | 22 | 195 | 0.0 | 0.0 | 0.00 | 0.00 | 0.00 | 22 | 1021.8 |
| 20260903163202 | 22 | 205 | 0.0 | 0.0 | 0.00 | 0.00 | 0.00 | 22 | 1021.8 |
| 20260903162656 | 22 | 230 | 0.0 | 0.0 | 0.00 | 0.00 | 0.00 | 23 | 1021.8 |
| 20260903162149 | 22 | 224 | 0.0 | 0.0 | 0.00 | 0.00 | 0.00 | 21 | 1021.8 |
| 20260903161645 | 22 | 214 | 0.0 | 0.0 | 0.00 | 0.00 | 0.00 | 21 | 1021.8 |
| 20260903161139 | 22 | 223 | 0.0 | 0.0 | 0.00 | 0.00 | 0.00 | 22 | 1021.8 |
| 20260903160633 | 22 | 182 | 0.0 | 0.0 | 0.00 | 0.00 | 0.00 | 22 | 1021.8 |
| 20260903160127 | 22 | 232 | 0.0 | 0.0 | 0.00 | 0.00 | 0.00 | 20 | 1021.8 |
| 20260903155622 | 21 | 247 | 0.0 | 0.0 | 0.00 | 0.00 | 0.00 | 20 | 1021.8 |
| 20260903155115 | 21 | 255 | 0.0 | 0.0 | 0.00 | 0.00 | 0.00 | 21 | 1021.8 |
| 20260903154609 | 20 | 278 | 0.0 | 0.0 | 0.00 | 0.00 | 0.00 | 21 | 1022.1 |
| 20260903154104 | 20 | 158 | 0.0 | 0.0 | 0.00 | 0.00 | 0.00 | 21 | 1021.8 |
| 20260903153558 | 19 | 209 | 0.0 | 0.0 | 0.00 | 0.00 | 0.00 | 23 | 1021.8 |
| 20260903153052 | 19 | 185 | 0.0 | 0.0 | 0.00 | 0.00 | 0.00 | 24 | 1022.1 |
| 20260903152547 | 18 | 182 | 0.0 | 0.0 | 0.00 | 0.00 | 0.00 | 30 | 1022.1 |
| 20260903152040 | 18 | 186 | 0.0 | 0.0 | 0.00 | 0.00 | 0.00 | 31 | 1022.1 |
| 20260903151535 | 18 | 191 | 0.0 | 0.0 | 0.00 | 0.00 | 0.00 | 32 | 1022.1 |
| 20260903151030 | 18 | 190 | 0.0 | 0.0 | 0.00 | 0.00 | 0.00 | 32 | 1022.1 |
| 20260903150524 | 18 | 194 | 0.0 | 0.0 | 0.00 | 0.00 | 0.00 | 31 | 1022.1 |
| 20260903150519 | 17 | 207 | 0.0 | 0.0 | 0.00 | 0.00 | 0.00 | 31 | 1022.1 |
| 20260903145517 | 17 | 217 | 0.0 | 0.0 | 0.00 | 0.00 | 0.00 | 31 | 1022.1 |
| 20260903145009 | 17 | 185 | 0.0 | 0.0 | 0.00 | 0.00 | 0.00 | 33 | 1022.1 |
| 20260903144503 | 17 | 209 | 0.0 | 0.0 | 0.00 | 0.00 | 0.00 | 35 | 1022.1 |
| 20260903143959 | 16 | 194 | 0.0 | 0.0 | 0.00 | 0.00 | 0.00 | 36 | 1021.8 |
| 20260903143953 | 16 | 213 | 0.0 | 0.0 | 0.00 | 0.00 | 0.00 | 36 | 1022.1 |
| 20260903142945 | 16 | 196 | 0.0 | 0.0 | 0.00 | 0.00 | 0.00 | 37 | 1022.1 |
| 20260903142441 | 16 | 252 | 0.0 | 0.0 | 0.00 | 0.00 | 0.00 | 38 | 1022.1 |
| 20260903141935 | 16 | 241 | 0.0 | 0.0 | 0.00 | 0.00 | 0.00 | 38 | 1022.1 |
| 20260903141930 | 16 | 197 | 0.0 | 0.0 | 0.00 | 0.00 | 0.00 | 38 | 1022.1 |
| 20260903140924 | 16 | 231 | 0.0 | 0.0 | 0.00 | 0.00 | 0.00 | 38 | 1022.1 |
| 20260903140417 | 16 | 193 | 0.0 | 0.0 | 0.00 | 0.00 | 0.00 | 39 | 1022.1 |
| 20260903135911 | 16 | 256 | 0.0 | 0.0 | 0.00 | 0.00 | 0.00 | 38 | 1022.1 |
| 20260903135407 | 16 | 218 | 0.0 | 0.0 | 0.00 | 0.00 | 0.00 | 37 | 1022.1 |
| 20260903134859 | 16 | 244 | 0.0 | 0.0 | 0.00 | 0.00 | 0.00 | 37 | 1021.8 |
| 20260903134355 | 16 | 225 | 0.0 | 0.0 | 0.00 | 0.00 | 0.00 | 37 | 1021.8 |
| 20260903134350 | 16 | 205 | 0.0 | 0.0 | 0.00 | 0.00 | 0.00 | 38 | 1021.8 |
| 20260903133343 | 16 | 271 | 0.0 | 0.0 | 0.00 | 0.00 | 0.00 | 38 | 1021.8 |
| 20260903132836 | 16 | 224 | 0.0 | 0.0 | 0.00 | 0.00 | 0.00 | 38 | 1021.8 |
| 20260903132331 | 16 | 265 | 0.0 | 0.0 | 0.00 | 0.00 | 0.00 | 37 | 1021.8 |
| 20260903131825 | 16 | 255 | 0.0 | 0.0 | 0.00 | 0.00 | 0.00 | 37 | 1021.8 |
| 20260903131319 | 16 | 207 | 0.0 | 0.0 | 0.00 | 0.00 | 0.00 | 37 | 1021.8 |
| 20260903130814 | 16 | 260 | 0.0 | 0.0 | 0.00 | 0.00 | 0.00 | 38 | 1021.8 |
| 20260903130308 | 16 | 211 | 0.0 | 0.0 | 0.00 | 0.00 | 0.00 | 38 | 1021.8 |
| 20260903130303 | 16 | 270 | 0.0 | 0.0 | 0.00 | 0.00 | 0.00 | 38 | 1022.1 |
| 20260903125257 | 16 | 193 | 0.0 | 0.0 | 0.00 | 0.00 | 0.00 | 38 | 1021.8 |
| 20260903124750 | 16 | 243 | 0.0 | 0.0 | 0.00 | 0.00 | 0.00 | 38 | 1021.8 |
| 20260903124745 | 16 | 216 | 0.0 | 0.0 | 0.00 | 0.00 | 0.00 | 39 | 1021.8 |
| 20260903124249 | 16 | 216 | 0.0 | 0.0 | 0.00 | 0.00 | 0.00 | 39 | 1021.8 |
| 20260903123740 | 16 | 217 | 0.0 | 0.0 | 0.00 | 0.00 | 0.00 | 39 | 1021.8 |
| 20260903123232 | 16 | 284 | 0.0 | 0.0 | 0.00 | 0.00 | 0.00 | 39 | 1022.4 |
| 20260903122726 | 16 | 259 | 0.0 | 0.0 | 0.00 | 0.00 | 0.00 | 38 | 1021.8 |
| 20260903122223 | 16 | 220 | 0.0 | 0.0 | 0.00 | 0.00 | 0.00 | 38 | 1022.1 |
| 20260903121715 | 16 | 273 | 0.0 | 0.0 | 0.00 | 0.00 | 0.00 | 38 | 1021.8 |
| 20260903121210 | 16 | 240 | 0.0 | 0.0 | 0.00 | 0.00 | 0.00 | 38 | 1022.1 |
| 20260903120706 | 16 | 233 | 0.0 | 0.0 | 0.00 | 0.00 | 0.00 | 37 | 1021.8 |
| 20260903120158 | 16 | 245 | 0.0 | 0.0 | 0.00 | 0.00 | 0.00 | 37 | 1022.1 |
| 20260903115652 | 15 | 200 | 0.0 | 0.0 | 0.00 | 0.00 | 0.00 | 37 | 1022.1 |
| 20260903115147 | 15 | 261 | 0.0 | 0.0 | 0.00 | 0.00 | 0.00 | 38 | 1021.8 |
| 20260903114641 | 15 | 253 | 0.0 | 0.0 | 0.00 | 0.00 | 0.00 | 38 | 1022.1 |
| 20260903114135 | 15 | 231 | 0.0 | 0.0 | 0.00 | 0.00 | 0.00 | 38 | 1022.1 |
| 20260903113630 | 15 | 209 | 0.0 | 0.0 | 0.00 | 0.00 | 0.00 | 39 | 1022.1 |
| 20260903113123 | 15 | 215 | 0.0 | 0.0 | 0.00 | 0.00 | 0.00 | 39 | 1022.4 |
| 20260903113115 | 15 | 226 | 0.0 | 0.0 | 0.00 | 0.00 | 0.00 | 39 | 1022.1 |
| 20260903112720 | 15 | 234 | 0.0 | 0.0 | 0.00 | 0.00 | 0.00 | 39 | 1022.1 |
| 20260903111605 | 15 | 226 | 0.0 | 0.0 | 0.00 | 0.00 | 0.00 | 40 | 1022.4 |
| 20260903111100 | 15 | 223 | 0.0 | 0.0 | 0.00 | 0.00 | 0.00 | 39 | 1022.4 |
| 20260903110555 | 15 | 226 | 0.0 | 0.0 | 0.00 | 0.00 | 0.00 | 39 | 1022.8 |
| 20260903110048 | 15 | 270 | 0.0 | 0.0 | 0.00 | 0.00 | 0.00 | 40 | 1022.4 |
| 20260903105543 | 14 | 248 | 0.0 | 0.0 | 0.00 | 0.00 | 0.00 | 40 | 1022.4 |
| 20260903105039 | 14 | 239 | 0.0 | 0.0 | 0.00 | 0.00 | 0.00 | 40 | 1022.4 |
| 20260903105032 | 14 | 234 | 0.0 | 0.0 | 0.00 | 0.00 | 0.00 | 40 | 1022.4 |
| 20260903104026 | 14 | 233 | 0.0 | 0.0 | 0.00 | 0.00 | 0.00 | 40 | 1022.4 |
| 20260903103520 | 14 | 236 | 0.0 | 0.0 | 0.00 | 0.00 | 0.00 | 40 | 1022.8 |
| 20260903103014 | 14 | 244 | 0.0 | 0.0 | 0.00 | 0.00 | 0.00 | 40 | 1022.4 |
| 20260903102507 | 14 | 222 | 0.0 | 0.0 | 0.00 | 0.00 | 0.00 | 40 | 1022.4 |
| 20260903102004 | 14 | 224 | 0.0 | 0.0 | 0.00 | 0.00 | 0.00 | 39 | 1022.8 |
| 20260903101457 | 14 | 227 | 0.0 | 0.0 | 0.00 | 0.00 | 0.00 | 39 | 1022.8 |
| 20260903101045 | 15 | 224 | 0.0 | 0.0 | 0.00 | 0.00 | 0.00 | 38 | 1022.4 |
| 20260903100950 | 15 | 224 | 0.0 | 0.0 | 0.00 | 0.00 | 0.00 | 39 | 1022.8 |
| 20260903100936 | 15 | 224 | 0.0 | 0.0 | 0.00 | 0.00 | 0.00 | 38 | 1022.4 |
| 20260903100039 | 15 | 224 | 0.0 | 0.0 | 0.00 | 0.00 | 0.00 | 38 | 1022.8 |
| 20260903094928 | 15 | 229 | 0.0 | 0.0 | 0.00 | 0.00 | 0.00 | 37 | 1022.8 |
| 20260903094422 | 15 | 229 | 0.0 | 0.0 | 0.00 | 0.00 | 0.00 | 37 | 1022.8 |
| 20260903093916 | 15 | 229 | 0.0 | 0.0 | 0.00 | 0.00 | 0.00 | 37 | 1022.8 |
| 20260903093412 | 15 | 227 | 0.0 | 0.0 | 0.00 | 0.00 | 0.00 | 37 | 1022.8 |
| 20260903092905 | 15 | 234 | 0.0 | 0.0 | 0.00 | 0.00 | 0.00 | 36 | 1022.8 |
| 20260903092359 | 16 | 234 | 0.0 | 0.0 | 0.00 | 0.00 | 0.00 | 36 | 1022.8 |
| 20260903091854 | 16 | 270 | 0.0 | 0.0 | 0.00 | 0.00 | 0.00 | 36 | 1022.8 |
| 20260903091348 | 16 | 206 | 0.0 | 0.0 | 0.00 | 0.00 | 0.00 | 35 | 1022.8 |
| 20260903090841 | 15 | 259 | 0.0 | 0.0 | 0.00 | 0.00 | 0.00 | 35 | 1023.1 |
| 20260903090832 | 15 | 257 | 0.0 | 0.0 | 0.00 | 0.00 | 0.00 | 36 | 1023.1 |
| 20260903090436 | 15 | 255 | 0.0 | 0.0 | 0.00 | 0.00 | 0.00 | 35 | 1022.8 |
| 20260903085324 | 15 | 245 | 0.0 | 0.0 | 0.00 | 0.00 | 0.00 | 36 | 1023.1 |
| 20260903084820 | 15 | 204 | 0.0 | 0.0 | 0.00 | 0.00 | 0.00 | 35 | 1023.1 |
| 20260903084313 | 15 | 244 | 0.0 | 0.0 | 0.00 | 0.00 | 0.00 | 37 | 1023.1 |
| 20260903083807 | 15 | 238 | 0.0 | 0.0 | 0.00 | 0.00 | 0.00 | 37 | 1023.5 |
| 20260903083302 | 15 | 213 | 0.0 | 0.0 | 0.00 | 0.00 | 0.00 | 37 | 1023.1 |
| 20260903083256 | 15 | 224 | 0.0 | 0.0 | 0.00 | 0.00 | 0.00 | 37 | 1023.1 |
| 20260903082249 | 16 | 225 | 0.0 | 0.0 | 0.00 | 0.00 | 0.00 | 38 | 1023.5 |
| 20260903081745 | 16 | 270 | 0.0 | 0.0 | 0.00 | 0.00 | 0.00 | 38 | 1023.1 |
| 20260903081237 | 16 | 248 | 0.0 | 0.0 | 0.00 | 0.00 | 0.00 | 36 | 1023.1 |
| 20260903080732 | 16 | 235 | 0.0 | 0.0 | 0.00 | 0.00 | 0.00 | 37 | 1023.1 |
| 20260903080227 | 16 | 217 | 0.0 | 0.0 | 0.00 | 0.00 | 0.00 | 38 | 1023.1 |
| 20260903075648 | 16 | 229 | 0.0 | 0.0 | 0.00 | 0.00 | 0.00 | 37 | 1023.1 |
| 20260903075143 | 16 | 206 | 0.0 | 0.0 | 0.00 | 0.00 | 0.00 | 37 | 1022.8 |
| 20260903074638 | 16 | 252 | 0.0 | 0.0 | 0.00 | 0.00 | 0.00 | 37 | 1023.1 |
| 20260903074132 | 16 | 220 | 0.0 | 0.0 | 0.00 | 0.00 | 0.00 | 36 | 1023.1 |
| 20260903073625 | 16 | 134 | 0.0 | 0.0 | 0.00 | 0.00 | 0.00 | 36 | 1023.1 |
| 20260903073121 | 16 | 237 | 0.0 | 0.0 | 0.00 | 0.00 | 0.00 | 36 | 1023.1 |
| 20260903072614 | 16 | 218 | 0.0 | 0.0 | 0.00 | 0.00 | 0.00 | 36 | 1023.1 |
| 20260903072108 | 16 | 215 | 0.0 | 0.0 | 0.00 | 0.00 | 0.00 | 36 | 1023.1 |
| 20260903071603 | 16 | 229 | 0.0 | 0.0 | 0.00 | 0.00 | 0.00 | 36 | 1023.1 |
| 20260903071056 | 16 | 222 | 0.0 | 0.0 | 0.00 | 0.00 | 0.00 | 36 | 1023.1 |
| 20260903070551 | 16 | 215 | 0.0 | 0.0 | 0.00 | 0.00 | 0.00 | 35 | 1023.5 |
| 20260903070048 | 16 | 273 | 0.0 | 0.0 | 0.00 | 0.00 | 0.00 | 35 | 1023.1 |
| 20260903065539 | 16 | 284 | 0.0 | 0.0 | 0.00 | 0.00 | 0.00 | 35 | 1023.1 |
| 20260903065033 | 17 | 255 | 0.0 | 0.0 | 0.00 | 0.00 | 0.00 | 35 | 1023.5 |
| 20260903064529 | 17 | 341 | 0.0 | 0.0 | 0.00 | 0.00 | 0.00 | 34 | 1023.5 |
| 20260903064021 | 17 | 306 | 0.0 | 0.0 | 0.00 | 0.00 | 0.00 | 35 | 1023.5 |
| 20260903063516 | 17 | 255 | 0.0 | 0.0 | 0.00 | 0.00 | 0.00 | 33 | 1023.1 |
| 20260903063011 | 17 | 271 | 0.0 | 0.0 | 0.00 | 0.00 | 0.00 | 33 | 1023.1 |
| 20260903062504 | 17 | 270 | 0.0 | 0.0 | 0.00 | 0.00 | 0.00 | 33 | 1023.1 |
| 20260903061958 | 17 | 175 | 0.0 | 0.0 | 0.00 | 0.00 | 0.00 | 33 | 1023.5 |
| 20260903061454 | 17 | 248 | 0.0 | 0.0 | 0.00 | 0.00 | 0.00 | 32 | 1023.1 |
| 20260903060947 | 17 | 241 | 0.0 | 0.0 | 0.00 | 0.00 | 0.00 | 32 | 1023.5 |
| 20260903060441 | 17 | 290 | 0.0 | 1.6 | 0.00 | 0.00 | 0.00 | 32 | 1023.1 |
| 20260903055937 | 17 | 130 | 0.0 | 1.6 | 0.00 | 0.00 | 0.00 | 32 | 1023.5 |
| 20260903055429 | 17 | 210 | 0.0 | 0.0 | 0.00 | 0.00 | 0.00 | 32 | 1023.1 |
| 20260903054924 | 17 | 328 | 0.0 | 0.0 | 0.00 | 0.00 | 0.00 | 32 | 1023.5 |
| 20260903054419 | 17 | 229 | 0.0 | 0.0 | 0.00 | 0.00 | 0.00 | 31 | 1023.5 |
| 20260903053912 | 17 | 203 | 0.0 | 0.0 | 0.00 | 0.00 | 0.00 | 31 | 1023.5 |
| 20260903053406 | 17 | 241 | 0.0 | 0.0 | 0.00 | 0.00 | 0.00 | 31 | 1023.5 |
| 20260903052902 | 17 | 2 | 0.0 | 0.0 | 0.00 | 0.00 | 0.00 | 31 | 1023.5 |
| 20260903052356 | 17 | 187 | 0.0 | 0.0 | 0.00 | 0.00 | 0.00 | 31 | 1023.5 |
| 20260903051850 | 18 | 195 | 0.0 | 0.0 | 0.00 | 0.00 | 0.00 | 30 | 1023.5 |
| 20260903051344 | 18 | 220 | 0.0 | 0.0 | 0.00 | 0.00 | 0.00 | 32 | 1023.5 |
| 20260903050837 | 18 | 259 | 0.0 | 0.0 | 0.00 | 0.00 | 0.00 | 32 | 1023.5 |
| 20260903050331 | 18 | 312 | 0.0 | 0.0 | 0.00 | 0.00 | 0.00 | 32 | 1023.5 |
| 20260903045827 | 18 | 296 | 0.0 | 0.0 | 0.00 | 0.00 | 0.00 | 32 | 1023.5 |
| 20260903045320 | 19 | 239 | 0.0 | 0.0 | 0.00 | 0.00 | 0.00 | 32 | 1023.5 |
| 20260903044814 | 19 | 323 | 0.0 | 0.0 | 0.00 | 0.00 | 0.00 | 32 | 1023.5 |
| 20260903044804 | 19 | 221 | 0.0 | 0.0 | 0.00 | 0.00 | 0.00 | 32 | 1023.5 |
| 20260903044410 | 19 | 304 | 0.0 | 0.0 | 0.00 | 0.00 | 0.00 | 32 | 1023.5 |
| 20260903043257 | 19 | 256 | 0.0 | 0.0 | 0.00 | 0.00 | 0.00 | 31 | 1023.1 |
| 20260903042753 | 19 | 199 | 0.0 | 0.0 | 0.00 | 0.00 | 0.00 | 31 | 1023.5 |
| 20260903042747 | 20 | 318 | 0.0 | 0.0 | 0.00 | 0.00 | 0.00 | 31 | 1023.1 |
| 20260903041739 | 20 | 252 | 0.0 | 0.0 | 0.00 | 0.00 | 0.00 | 31 | 1023.1 |
| 20260903041235 | 20 | 250 | 0.0 | 0.0 | 0.00 | 0.00 | 0.00 | 31 | 1023.1 |
| 20260903040728 | 20 | 38 | 0.0 | 0.0 | 0.00 | 0.00 | 0.00 | 31 | 1023.1 |
| 20260903040722 | 20 | 218 | 0.0 | 0.0 | 0.00 | 0.00 | 0.00 | 31 | 1023.1 |
| 20260903035717 | 20 | 200 | 0.0 | 0.0 | 0.00 | 0.00 | 0.00 | 30 | 1023.1 |
| 20260903035210 | 20 | 243 | 0.0 | 0.0 | 0.00 | 0.00 | 0.00 | 30 | 1023.1 |
| 20260903034705 | 20 | 219 | 0.0 | 0.0 | 0.00 | 0.00 | 0.00 | 30 | 1023.1 |
| 20260903034200 | 20 | 220 | 0.0 | 0.0 | 0.00 | 0.00 | 0.00 | 30 | 1023.1 |
| 20260903033653 | 20 | 222 | 0.0 | 0.0 | 0.00 | 0.00 | 0.00 | 30 | 1022.8 |
| 20260903033147 | 20 | 319 | 0.0 | 0.0 | 0.00 | 0.00 | 0.00 | 30 | 1022.4 |
| 20260903032643 | 20 | 221 | 0.0 | 0.0 | 0.00 | 0.00 | 0.00 | 29 | 1022.4 |
| 20260903032136 | 21 | 183 | 0.0 | 0.0 | 0.00 | 0.00 | 0.00 | 29 | 1022.4 |
| 20260903031630 | 21 | 14 | 0.0 | 0.0 | 0.00 | 0.00 | 0.00 | 28 | 1022.4 |
| 20260903031125 | 21 | 245 | 0.0 | 1.6 | 0.00 | 0.00 | 0.00 | 28 | 1022.4 |
| 20260903030619 | 21 | 309 | 0.0 | 1.6 | 0.00 | 0.00 | 0.00 | 27 | 1022.4 |
| 20260903030610 | 21 | 277 | 0.0 | 1.6 | 0.00 | 0.00 | 0.00 | 25 | 1022.4 |
| 20260903030215 | 21 | 234 | 0.0 | 0.0 | 0.00 | 0.00 | 0.00 | 25 | 1022.1 |
| 20260903025101 | 21 | 301 | 0.0 | 1.6 | 0.00 | 0.00 | 0.00 | 25 | 1022.4 |
| 20260903024555 | 21 | 241 | 0.0 | 1.6 | 0.00 | 0.00 | 0.00 | 24 | 1022.4 |
| 20260903024053 | 21 | 331 | 0.0 | 1.6 | 0.00 | 0.00 | 0.00 | 24 | 1022.4 |
| 20260903024045 | 22 | 293 | 0.0 | 1.6 | 0.00 | 0.00 | 0.00 | 23 | 1022.4 |
| 20260903023037 | 22 | 231 | 0.0 | 1.6 | 0.00 | 0.00 | 0.00 | 22 | 1022.4 |
| 20260903022533 | 22 | 348 | 0.0 | 1.6 | 0.00 | 0.00 | 0.00 | 21 | 1022.1 |
| 20260903022026 | 22 | 249 | 0.0 | 1.6 | 0.00 | 0.00 | 0.00 | 19 | 1022.1 |
| 20260903021520 | 22 | 345 | 0.0 | 1.6 | 0.00 | 0.00 | 0.00 | 19 | 1022.1 |
| 20260903021016 | 22 | 196 | 0.0 | 1.6 | 0.00 | 0.00 | 0.00 | 19 | 1022.1 |
| 20260903020508 | 22 | 290 | 0.0 | 1.6 | 0.00 | 0.00 | 0.00 | 19 | 1022.4 |
| 20260903020004 | 22 | 226 | 0.0 | 0.0 | 0.00 | 0.00 | 0.00 | 19 | 1022.1 |
| 20260903015458 | 23 | 311 | 0.0 | 0.0 | 0.00 | 0.00 | 0.00 | 20 | 1022.4 |
| 20260903014951 | 23 | 221 | 0.0 | 0.0 | 0.00 | 0.00 | 0.00 | 20 | 1022.1 |
| 20260903014943 | 23 | 260 | 0.0 | 1.6 | 0.00 | 0.00 | 0.00 | 22 | 1022.1 |
| 20260903014546 | 23 | 215 | 0.0 | 1.6 | 0.00 | 0.00 | 0.00 | 20 | 1022.4 |
| 20260903013434 | 23 | 294 | 0.0 | 1.6 | 0.00 | 0.00 | 0.00 | 22 | 1022.1 |
| 20260903012928 | 24 | 225 | 0.0 | 4.8 | 0.00 | 0.00 | 0.00 | 22 | 1021.8 |
| 20260903012423 | 24 | 289 | 0.0 | 4.8 | 0.00 | 0.00 | 0.00 | 22 | 1022.1 |
| 20260903011916 | 24 | 176 | 0.0 | 0.0 | 0.00 | 0.00 | 0.00 | 22 | 1022.1 |
| 20260903011411 | 25 | 215 | 0.0 | 3.2 | 0.00 | 0.00 | 0.00 | 21 | 1022.1 |
| 20260903010906 | 25 | 249 | 0.0 | 3.2 | 0.00 | 0.00 | 0.00 | 20 | 1022.1 |
| 20260903010400 | 25 | 280 | 0.0 | 1.6 | 0.00 | 0.00 | 0.00 | 19 | 1021.8 |
| 20260903010354 | 25 | 154 | 0.0 | 1.6 | 0.00 | 0.00 | 0.00 | 19 | 1022.1 |
| 20260903005348 | 25 | 243 | 0.0 | 0.0 | 0.00 | 0.00 | 0.00 | 18 | 1022.1 |
| 20260903004842 | 25 | 281 | 0.0 | 0.0 | 0.00 | 0.00 | 0.00 | 20 | 1021.8 |
| 20260903004338 | 25 | 213 | 0.0 | 0.0 | 0.00 | 0.00 | 0.00 | 20 | 1022.1 |
| 20260903003831 | 25 | 145 | 0.0 | 0.0 | 0.00 | 0.00 | 0.00 | 20 | 1022.1 |
| 20260903003325 | 25 | 222 | 0.0 | 3.2 | 0.00 | 0.00 | 0.00 | 20 | 1022.1 |
| 20260903003320 | 25 | 170 | 0.0 | 3.2 | 0.00 | 0.00 | 0.00 | 20 | 1022.1 |
| 20260903002315 | 25 | 142 | 0.0 | 1.6 | 0.00 | 0.00 | 0.00 | 20 | 1021.8 |
| 20260903002308 | 25 | 38 | 0.0 | 1.6 | 0.00 | 0.00 | 0.00 | 20 | 1022.4 |
| 20260903001301 | 25 | 174 | 0.0 | 0.0 | 0.00 | 0.00 | 0.00 | 20 | 1022.1 |
| 20260903000757 | 24 | 188 | 0.0 | 0.0 | 0.00 | 0.00 | 0.00 | 20 | 1022.1 |
| 20260903000249 | 24 | 96 | 0.0 | 0.0 | 0.00 | 0.00 | 0.00 | 21 | 1022.1 |
| 20260902235744 | 24 | 141 | 0.0 | 0.0 | 0.00 | 0.00 | 0.00 | 21 | 1022.4 |
| 20260902235239 | 24 | 174 | 0.0 | 0.0 | 0.00 | 0.00 | 0.00 | 20 | 1022.4 |
| 20260902234733 | 24 | 199 | 0.0 | 0.0 | 0.00 | 0.00 | 0.00 | 21 | 1022.4 |
| 20260902234226 | 24 | 159 | 0.0 | 0.0 | 0.00 | 0.00 | 0.00 | 21 | 1022.4 |
| 20260902234216 | 24 | 186 | 0.0 | 0.0 | 0.00 | 0.00 | 0.00 | 21 | 1022.4 |
| 20260902233820 | 24 | 149 | 0.0 | 0.0 | 0.00 | 0.00 | 0.00 | 21 | 1022.4 |
| 20260902233316 | 24 | 182 | 0.0 | 0.0 | 0.00 | 0.00 | 0.00 | 20 | 1022.8 |
| 20260902232204 | 24 | 187 | 0.0 | 0.0 | 0.00 | 0.00 | 0.00 | 21 | 1022.4 |
| 20260902231657 | 25 | 198 | 0.0 | 0.0 | 0.00 | 0.00 | 0.00 | 21 | 1022.4 |
| 20260902231152 | 25 | 231 | 0.0 | 0.0 | 0.00 | 0.00 | 0.00 | 21 | 1022.4 |
| 20260902230647 | 25 | 140 | 0.0 | 0.0 | 0.00 | 0.00 | 0.00 | 21 | 1022.4 |
| 20260902230140 | 25 | 140 | 0.0 | 1.6 | 0.00 | 0.00 | 0.00 | 21 | 1022.4 |
| 20260902225634 | 25 | 196 | 0.0 | 3.2 | 0.00 | 0.00 | 0.00 | 21 | 1022.4 |
| 20260902225129 | 25 | 306 | 0.0 | 3.2 | 0.00 | 0.00 | 0.00 | 20 | 1022.8 |
| 20260902224622 | 25 | 245 | 0.0 | 3.2 | 0.00 | 0.00 | 0.00 | 20 | 1022.4 |
| 20260902224116 | 25 | 169 | 0.0 | 3.2 | 0.00 | 0.00 | 0.00 | 20 | 1022.8 |
| 20260902223612 | 25 | 56 | 0.0 | 1.6 | 0.00 | 0.00 | 0.00 | 21 | 1022.4 |
| 20260902223105 | 26 | 123 | 0.0 | 1.6 | 0.00 | 0.00 | 0.00 | 20 | 1022.8 |
| 20260902222559 | 25 | 211 | 0.0 | 1.6 | 0.00 | 0.00 | 0.00 | 14 | 1022.8 |
| 20260902222055 | 25 | 324 | 0.0 | 1.6 | 0.00 | 0.00 | 0.00 | 19 | 1022.8 |
| 20260902221547 | 25 | 325 | 0.0 | 1.6 | 0.00 | 0.00 | 0.00 | 16 | 1022.8 |
| 20260902221042 | 25 | 229 | 0.0 | 1.6 | 0.00 | 0.00 | 0.00 | 18 | 1023.1 |
| 20260902220537 | 25 | 25 | 0.0 | 1.6 | 0.00 | 0.00 | 0.00 | 19 | 1023.1 |
| 20260902220530 | 25 | 167 | 0.0 | 3.2 | 0.00 | 0.00 | 0.00 | 17 | 1023.1 |
| 20260902215524 | 25 | 286 | 0.0 | 3.2 | 0.00 | 0.00 | 0.00 | 20 | 1023.5 |
| 20260902215019 | 25 | 63 | 0.0 | 3.2 | 0.00 | 0.00 | 0.00 | 20 | 1023.5 |
| 20260902214513 | 25 | 321 | 0.0 | 0.0 | 0.00 | 0.00 | 0.00 | 19 | 1023.5 |
| 20260902214006 | 25 | 322 | 0.0 | 0.0 | 0.00 | 0.00 | 0.00 | 18 | 1023.5 |
| 20260902213502 | 25 | 125 | 0.0 | 1.6 | 0.00 | 0.00 | 0.00 | 19 | 1023.5 |
| 20260902212955 | 25 | 343 | 0.0 | 3.2 | 0.00 | 0.00 | 0.00 | 21 | 1023.5 |
| 20260902212449 | 25 | 229 | 0.0 | 3.2 | 0.00 | 0.00 | 0.00 | 20 | 1023.5 |
| 20260902211947 | 25 | 23 | 0.0 | 1.6 | 0.00 | 0.00 | 0.00 | 20 | 1023.5 |
| 20260902211940 | 25 | 38 | 0.0 | 1.6 | 0.00 | 0.00 | 0.00 | 20 | 1023.8 |
| 20260902210932 | 24 | 301 | 0.0 | 0.0 | 0.00 | 0.00 | 0.00 | 20 | 1023.8 |
| 20260902210428 | 24 | 287 | 0.0 | 0.0 | 0.00 | 0.00 | 0.00 | 20 | 1023.8 |
| 20260902205920 | 23 | 84 | 0.0 | 1.6 | 0.00 | 0.00 | 0.00 | 21 | 1024.1 |
| 20260902205906 | 23 | 308 | 0.0 | 0.0 | 0.00 | 0.00 | 0.00 | 24 | 1023.8 |
| 20260902205513 | 23 | 117 | 0.0 | 0.0 | 0.00 | 0.00 | 0.00 | 23 | 1023.8 |
| 20260902205010 | 23 | 331 | 0.0 | 0.0 | 0.00 | 0.00 | 0.00 | 23 | 1023.8 |
| 20260902203857 | 23 | 252 | 0.0 | 1.6 | 0.00 | 0.00 | 0.00 | 25 | 1023.8 |
| 20260902203352 | 23 | 289 | 0.0 | 1.6 | 0.00 | 0.00 | 0.00 | 25 | 1023.8 |
| 20260902202845 | 23 | 58 | 0.0 | 3.2 | 0.00 | 0.00 | 0.00 | 25 | 1024.1 |
| 20260902202340 | 23 | 267 | 0.0 | 3.2 | 0.00 | 0.00 | 0.00 | 23 | 1024.1 |
| 20260902202329 | 24 | 83 | 0.0 | 0.0 | 0.00 | 0.00 | 0.00 | 25 | 1024.1 |
| 20260902201935 | 23 | 192 | 0.0 | 3.2 | 0.00 | 0.00 | 0.00 | 27 | 1024.1 |
| 20260902200827 | 25 | 307 | 0.0 | 1.6 | 0.00 | 0.00 | 0.00 | 22 | 1024.1 |
| 20260902200823 | 24 | 333 | 0.0 | 1.6 | 0.00 | 0.00 | 0.00 | 23 | 1024.1 |
| 20260902195810 | 25 | 227 | 0.0 | 3.2 | 0.00 | 0.00 | 0.00 | 23 | 1024.1 |
| 20260902195306 | 25 | 279 | 0.0 | 3.2 | 0.00 | 0.00 | 0.00 | 24 | 1024.1 |
| 20260902194800 | 25 | 14 | 0.0 | 1.6 | 0.00 | 0.00 | 0.00 | 22 | 1024.1 |
| 20260902194253 | 25 | 355 | 0.0 | 0.0 | 0.00 | 0.00 | 0.00 | 17 | 1024.1 |
| 20260902193748 | 25 | 328 | 0.0 | 0.0 | 0.00 | 0.00 | 0.00 | 18 | 1024.5 |
| 20260902193743 | 25 | 27 | 0.0 | 0.0 | 0.00 | 0.00 | 0.00 | 14 | 1024.1 |